When you browse on this site, cookies collect data to enhance your experience and personalize the content and advertising you see.
Visit our Privacy Policy to learn more. By continuing to use the site, you agree to this use of cookies and data.
  • In Austria
  • List of Countries
  • For 7 days
  • Water Temperature
  • Satellite Maps
  • Weather Map
  • News
  • Weather Widgets
  • user-avatar
    Login

    Hourly Weather Herāt

    Today, 22 April, Monday

    Time Temperature Precipitation Wind Pressure Humidity
    00:00 +13°C° 0 mm 4 mps 678 mmHg 65%
    01:00 +13°C° 0 mm 4 mps 678 mmHg 65%
    02:00 +13°C° 0 mm 4 mps 678 mmHg 65%
    03:00 +13°C° 0 mm 3 mps 677 mmHg 65%
    04:00 +13°C° 0 mm 3 mps 677 mmHg 65%
    05:00 +13°C° 0 mm 3 mps 677 mmHg 61%
    06:00 +14°C° 0 mm 3 mps 678 mmHg 58%
    07:00 +16°C° 0 mm 3 mps 678 mmHg 55%
    08:00 +18°C° 0 mm 2 mps 678 mmHg 49%
    09:00 +20°C° 0 mm 2 mps 678 mmHg 42%
    10:00 +24°C° 0 mm 2 mps 678 mmHg 35%
    11:00 +25°C° 0 mm 3 mps 678 mmHg 33%
    12:00 +26°C° 0 mm 3 mps 678 mmHg 31%
    13:00 +28°C° 0 mm 3 mps 678 mmHg 28%
    14:00 +28°C° 0 mm 3 mps 678 mmHg 28%
    15:00 +29°C° 0 mm 4 mps 678 mmHg 28%
    16:00 +29°C° 0 mm 4 mps 677 mmHg 28%
    17:00 +27°C° 0 mm 3 mps 677 mmHg 34%
    18:00 +26°C° 0 mm 3 mps 677 mmHg 39%
    19:00 +24°C° 0 mm 2 mps 677 mmHg 45%
    20:00 +24°C° 0.3 mm 3 mps 677 mmHg 46%
    21:00 +24°C° 0.3 mm 3 mps 677 mmHg 47%
    22:00 +24°C° 0.3 mm 3 mps 677 mmHg 48%
    23:00 +22°C° 0.3 mm 4 mps 677 mmHg 49%

    Tomorrow, 23 April, Tuesday

    Time Temperature Precipitation Wind Pressure Humidity
    00:00 +22°C° 0.3 mm 4 mps 677 mmHg 50%
    01:00 +22°C° 0.3 mm 4 mps 676 mmHg 51%
    02:00 +22°C° 0 mm 5 mps 676 mmHg 50%
    03:00 +22°C° 0 mm 5 mps 676 mmHg 48%
    04:00 +22°C° 0 mm 6 mps 676 mmHg 47%
    05:00 +22°C° 0 mm 5 mps 676 mmHg 45%
    06:00 +23°C° 0 mm 5 mps 676 mmHg 44%
    07:00 +25°C° 0 mm 5 mps 677 mmHg 43%
    08:00 +27°C° 0 mm 7 mps 677 mmHg 38%
    09:00 +29°C° 0 mm 8 mps 677 mmHg 32%
    10:00 +32°C° 0 mm 9 mps 678 mmHg 27%
    11:00 +32°C° 0 mm 9 mps 678 mmHg 27%
    12:00 +32°C° 0 mm 9 mps 678 mmHg 26%
    13:00 +32°C° 0 mm 8 mps 677 mmHg 26%
    14:00 +28°C° 2.6 mm 8 mps 676 mmHg 41%
    15:00 +24°C° 2.6 mm 7 mps 675 mmHg 55%
    16:00 +20°C° 2.6 mm 7 mps 674 mmHg 70%
    17:00 +20°C° 3.7 mm 7 mps 675 mmHg 71%
    18:00 +19°C° 3.7 mm 6 mps 676 mmHg 73%
    19:00 +19°C° 3.7 mm 6 mps 676 mmHg 75%
    20:00 +17°C° 0.9 mm 8 mps 677 mmHg 71%
    21:00 +16°C° 0.9 mm 9 mps 677 mmHg 68%
    22:00 +14°C° 0.9 mm 11 mps 678 mmHg 65%
    23:00 +13°C° 0.7 mm 11 mps 678 mmHg 65%

    Day after tomorrow, 24 April, Wednesday

    Time Temperature Precipitation Wind Pressure Humidity
    00:00 +12°C° 0.7 mm 10 mps 678 mmHg 66%
    01:00 +11°C° 0.7 mm 10 mps 678 mmHg 67%
    02:00 +11°C° 0.5 mm 10 mps 678 mmHg 69%
    03:00 +9°C° 0.5 mm 10 mps 678 mmHg 72%
    04:00 +9°C° 0.5 mm 10 mps 678 mmHg 74%
    05:00 +9°C° 0.2 mm 10 mps 678 mmHg 74%
    06:00 +8°C° 0.2 mm 10 mps 679 mmHg 73%
    07:00 +8°C° 0.2 mm 10 mps 679 mmHg 72%
    08:00 +8°C° 0 mm 10 mps 680 mmHg 69%
    09:00 +9°C° 0 mm 10 mps 681 mmHg 66%
    10:00 +11°C° 0 mm 10 mps 682 mmHg 62%
    11:00 +11°C° 0 mm 10 mps 682 mmHg 61%
    12:00 +12°C° 0 mm 11 mps 682 mmHg 60%
    13:00 +12°C° 0 mm 11 mps 682 mmHg 58%
    14:00 +12°C° 0 mm 11 mps 682 mmHg 58%
    15:00 +11°C° 0 mm 10 mps 681 mmHg 58%
    16:00 +11°C° 0 mm 10 mps 681 mmHg 57%
    17:00 +10°C° 0 mm 9 mps 681 mmHg 59%
    18:00 +8°C° 0 mm 9 mps 682 mmHg 61%
    19:00 +7°C° 0 mm 8 mps 682 mmHg 63%
    20:00 +7°C° 0 mm 8 mps 682 mmHg 64%
    21:00 +6°C° 0 mm 8 mps 682 mmHg 64%
    22:00 +6°C° 0 mm 8 mps 682 mmHg 65%
    23:00 +6°C° 0 mm 7 mps 682 mmHg 65%

    25 April, Thursday

    Time Temperature Precipitation Wind Pressure Humidity
    00:00 +6°C° 0 mm 7 mps 682 mmHg 66%
    01:00 +6°C° 0 mm 7 mps 682 mmHg 66%
    02:00 +5°C° 0 mm 6 mps 682 mmHg 66%
    03:00 +5°C° 0 mm 6 mps 682 mmHg 66%
    04:00 +5°C° 0 mm 6 mps 682 mmHg 66%
    05:00 +5°C° 0 mm 6 mps 682 mmHg 62%
    06:00 +7°C° 0 mm 6 mps 682 mmHg 59%
    07:00 +7°C° 0 mm 6 mps 683 mmHg 55%
    08:00 +9°C° 0 mm 6 mps 683 mmHg 50%
    09:00 +11°C° 0 mm 6 mps 683 mmHg 45%
    10:00 +13°C° 0 mm 5 mps 683 mmHg 40%
    11:00 +14°C° 0 mm 5 mps 683 mmHg 38%
    12:00 +15°C° 0 mm 5 mps 683 mmHg 36%
    13:00 +16°C° 0 mm 5 mps 682 mmHg 35%
    14:00 +16°C° 0 mm 5 mps 682 mmHg 36%
    15:00 +16°C° 0 mm 6 mps 682 mmHg 37%
    16:00 +16°C° 0 mm 6 mps 681 mmHg 38%
    17:00 +15°C° 0 mm 6 mps 682 mmHg 42%
    18:00 +14°C° 0 mm 6 mps 682 mmHg 46%
    19:00 +11°C° 0 mm 6 mps 682 mmHg 50%
    20:00 +11°C° 0 mm 6 mps 682 mmHg 50%
    21:00 +10°C° 0 mm 6 mps 682 mmHg 51%
    22:00 +10°C° 0 mm 5 mps 682 mmHg 52%
    23:00 +10°C° 0 mm 5 mps 682 mmHg 52%

    26 April, Friday

    Time Temperature Precipitation Wind Pressure Humidity
    00:00 +9°C° 0 mm 5 mps 682 mmHg 52%
    01:00 +10°C° 0 mm 4 mps 682 mmHg 53%
    02:00 +8°C° 0 mm 4 mps 682 mmHg 53%
    03:00 +8°C° 0 mm 4 mps 682 mmHg 53%
    04:00 +8°C° 0 mm 4 mps 682 mmHg 53%
    05:00 +8°C° 0 mm 4 mps 682 mmHg 49%
    06:00 +9°C° 0 mm 5 mps 683 mmHg 46%
    07:00 +9°C° 0 mm 5 mps 683 mmHg 42%
    08:00 +12°C° 0 mm 5 mps 683 mmHg 38%
    09:00 +13°C° 0 mm 5 mps 684 mmHg 34%
    10:00 +15°C° 0 mm 5 mps 684 mmHg 30%
    11:00 +15°C° 0 mm 5 mps 684 mmHg 29%
    12:00 +16°C° 0 mm 5 mps 683 mmHg 28%
    13:00 +17°C° 0 mm 5 mps 683 mmHg 27%
    14:00 +17°C° 0 mm 5 mps 683 mmHg 28%
    15:00 +17°C° 0 mm 6 mps 683 mmHg 29%
    16:00 +17°C° 0 mm 6 mps 683 mmHg 31%
    17:00 +16°C° 0 mm 6 mps 683 mmHg 34%
    18:00 +15°C° 0 mm 6 mps 683 mmHg 38%
    19:00 +14°C° 0 mm 6 mps 683 mmHg 41%
    20:00 +13°C° 0 mm 6 mps 683 mmHg 42%
    21:00 +13°C° 0 mm 6 mps 683 mmHg 44%
    22:00 +12°C° 0 mm 5 mps 684 mmHg 45%
    23:00 +12°C° 0 mm 5 mps 683 mmHg 46%

    27 April, Saturday

    Time Temperature Precipitation Wind Pressure Humidity
    00:00 +10°C° 0 mm 5 mps 683 mmHg 47%
    01:00 +9°C° 0 mm 5 mps 683 mmHg 49%
    02:00 +9°C° 0 mm 5 mps 683 mmHg 49%
    03:00 +10°C° 0 mm 4 mps 682 mmHg 50%
    04:00 +8°C° 0 mm 4 mps 682 mmHg 50%
    05:00 +10°C° 0 mm 4 mps 683 mmHg 47%
    06:00 +9°C° 0 mm 5 mps 683 mmHg 45%
    07:00 +10°C° 0 mm 5 mps 683 mmHg 42%
    08:00 +13°C° 0 mm 5 mps 683 mmHg 38%
    09:00 +14°C° 0 mm 5 mps 684 mmHg 34%
    10:00 +16°C° 0 mm 6 mps 684 mmHg 30%
    11:00 +17°C° 0 mm 6 mps 683 mmHg 29%
    12:00 +17°C° 0 mm 6 mps 683 mmHg 28%
    13:00 +19°C° 0 mm 6 mps 683 mmHg 26%
    14:00 +19°C° 0 mm 6 mps 682 mmHg 27%
    15:00 +19°C° 0 mm 6 mps 682 mmHg 28%
    16:00 +19°C° 0 mm 6 mps 682 mmHg 29%
    17:00 +17°C° 0 mm 6 mps 682 mmHg 33%
    18:00 +16°C° 0 mm 5 mps 682 mmHg 36%
    19:00 +15°C° 0 mm 5 mps 682 mmHg 40%
    20:00 +14°C° 0 mm 5 mps 682 mmHg 42%
    21:00 +13°C° 0 mm 5 mps 682 mmHg 43%
    22:00 +13°C° 0 mm 4 mps 683 mmHg 45%
    23:00 +12°C° 0 mm 4 mps 682 mmHg 46%
    Show more